Weather History for KBRO - August, 2013

Change the Weather History Date:

Friday, August 9, 2013

  Actual Average Record
Temperature  
Mean Temperature 86 °F 86 °F  
Max Temperature 97 °F 95 °F 101 °F (1883)
Min Temperature 75 °F 76 °F 68 °F (1884)
Degree Days  
Heating Degree Days 0 0  
Month to date heating degree days 0 0  
Since 1 June heating degree days 0 0  
Since 1 July heating degree days 0 0  
Cooling Degree Days 21 21  
Month to date cooling degree days 207 189  
Year to date cooling degree days 2584 2467  
Since 1 June cooling degree days 1462 1374  
Growing Degree Days 36 (Base 50)    
Moisture  
Dew Point 74 °F    
Average Humidity 68    
Maximum Humidity 94    
Minimum Humidity 42    
Precipitation  
Precipitation 0.00 in 0.06 in 5.76 in (1906)
Month to date precipitation 0.00 0.52  
Year to date precipitation 8.58 12.89  
Sea Level Pressure  
Sea Level Pressure 29.88 in    
Wind  
Wind Speed 7 mph (ESE)    
Max Wind Speed 18 mph    
Max Gust Speed 26 mph    
Visibility 10 miles    
Events      
T = Trace of Precipitation, MM = Missing Value Source: NWS Daily Summary

Daily Weather History Graph

Daily Weather History Graph

Search for Another Location

Airport or City:

Trip Planner

Search our weather history database for the weather conditions in past years. The results will help you decide how hot, cold, wet, or windy it might be!

Date:

Astronomy

Aug. 09, 2013 Rise Set
Actual Time 6:59 AM CDT 8:10 PM CDT
Civil Twilight 6:35 AM CDT 8:34 PM CDT
Nautical Twilight 6:06 AM CDT 9:03 PM CDT
Astronomical Twilight 5:36 AM CDT 9:32 PM CDT
Moon 9:24 AM CDT (8/9) 9:46 PM CDT (8/9)
Length of Visible Light 13h 58m
Length of Day
13h 10m
Waxing Crescent, 8% of the Moon is Illuminated
Aug 9
Waxing Crescent
Aug 14
First Quarter
Aug 20
Full
Aug 28
Last Quarter
Sep 5
New

Hourly Weather History & Observations

Time (CDT) Temp. Heat Index Dew Point Humidity Pressure Visibility Wind Dir Wind Speed Gust Speed Precip Events Conditions
12:53 AM 80.1 °F 85.4 °F 75.9 °F 87% 29.89 in 10.0 mi SSE 6.9 mph - N/A   Clear
1:53 AM 78.1 °F - 75.0 °F 90% 29.89 in 10.0 mi SSE 4.6 mph - N/A   Clear
2:53 AM 77.0 °F - 75.0 °F 94% 29.88 in 10.0 mi South 3.5 mph - N/A   Clear
3:53 AM 77.0 °F - 75.0 °F 94% 29.88 in 10.0 mi SE 4.6 mph - N/A   Partly Cloudy
4:53 AM 77.0 °F - 73.9 °F 90% 29.88 in 10.0 mi Calm Calm - N/A   Clear
5:53 AM 75.9 °F - 73.9 °F 94% 29.88 in 10.0 mi SE 3.5 mph - N/A   Clear
6:53 AM 75.0 °F - 73.9 °F 96% 29.88 in 10.0 mi Calm Calm - N/A   Clear
7:53 AM 78.1 °F - 75.9 °F 93% 29.89 in 10.0 mi SSE 3.5 mph - N/A   Clear
8:53 AM 84.0 °F 92.6 °F 75.9 °F 76% 29.89 in 10.0 mi South 5.8 mph - N/A   Clear
9:53 AM 88.0 °F 95.6 °F 73.0 °F 61% 29.90 in 10.0 mi SSE 9.2 mph - N/A   Clear
10:53 AM 90.0 °F 96.9 °F 72.0 °F 55% 29.90 in 10.0 mi Variable 4.6 mph - N/A   Clear
11:53 AM 93.9 °F 100.3 °F 70.0 °F 46% 29.91 in 10.0 mi East 6.9 mph - N/A   Clear
12:53 PM 96.1 °F 104.9 °F 72.0 °F 46% 29.88 in 10.0 mi ESE 11.5 mph 17.3 mph N/A   Clear
1:53 PM 97.0 °F 103.5 °F 70.0 °F 41% 29.88 in 10.0 mi East 11.5 mph - N/A   Clear
2:53 PM 95.0 °F 100.7 °F 69.1 °F 43% 29.87 in 10.0 mi East 8.1 mph 18.4 mph N/A   Clear
3:53 PM 95.0 °F 101.3 °F 70.0 °F 44% 29.87 in 10.0 mi East 15.0 mph 20.7 mph N/A   Clear
4:53 PM 93.0 °F 100.1 °F 71.1 °F 49% 29.86 in 10.0 mi ESE 12.7 mph - N/A   Clear
5:53 PM 91.9 °F 100.7 °F 73.0 °F 54% 29.85 in 10.0 mi East 12.7 mph 20.7 mph N/A   Clear
6:53 PM 89.1 °F 99.1 °F 75.0 °F 63% 29.85 in 10.0 mi East 15.0 mph - N/A   Clear
7:53 PM 86.0 °F 95.1 °F 75.0 °F 70% 29.87 in 10.0 mi East 12.7 mph - N/A   Clear
8:53 PM 84.0 °F 93.7 °F 77.0 °F 79% 29.89 in 10.0 mi East 11.5 mph - N/A   Clear
9:53 PM 84.0 °F 93.7 °F 77.0 °F 79% 29.91 in 10.0 mi ENE 5.8 mph - N/A   Clear
10:53 PM 82.9 °F 92.8 °F 78.1 °F 85% 29.93 in 10.0 mi ENE 3.5 mph - N/A   Clear
11:53 PM 82.0 °F 91.0 °F 78.1 °F 88% 29.93 in 10.0 mi ENE 3.5 mph - N/A   Clear